Location: Mainz-Finthen
(49.9906°N, 8.1713°E)
Time: 12:00:24
(UTC+00:00)

N. Korean satellite - Visible Passes

Search period start: 29 November 2022 00:00
Search period end: 09 December 2022 00:00
Orbit: 421 x 454 km, 97.3° (Epoch: 28 November)

Date Brightness Start Highest point End Pass type
(mag) Time Alt. Az. Time Alt. Az. Time Alt. Az.
29 Nov 10.0 03:39:46 10° ENE 03:40:38 11° E 03:41:31 10° ESE visible
29 Nov 6.3 05:10:09 10° N 05:13:34 63° WNW 05:16:56 10° SSW visible
30 Nov 7.7 04:31:32 10° NNE 04:34:50 42° E 04:38:05 10° S visible
30 Nov 8.0 06:04:50 10° NNW 06:07:03 16° WNW 06:09:16 10° WSW visible
30 Nov 9.2 16:38:07 10° SSW 16:40:51 22° W 16:43:36 10° NW visible
01 Dec 9.5 03:53:42 10° NE 03:55:51 16° E 03:57:59 10° SE visible
01 Dec 6.8 05:25:19 10° N 05:28:34 41° WNW 05:31:47 10° SW visible
02 Dec 6.8 04:46:26 10° NNE 04:49:51 65° ESE 04:53:13 10° S visible
02 Dec 8.3 06:20:33 10° NW 06:21:53 12° WNW 06:23:12 10° W visible
02 Dec 9.6 16:53:46 10° SW 16:55:55 16° W 16:58:04 10° NW visible
03 Dec 8.9 04:08:08 10° NE 04:10:53 22° E 04:13:36 10° SSE visible
03 Dec 7.3 05:40:26 10° N 05:43:24 28° WNW 05:46:21 10° SW visible
03 Dec 7.9 16:13:37 10° S 16:16:51 42° W 16:20:08 10° NNW visible
04 Dec 6.2 05:01:16 10° NNE 05:04:42 82° WNW 05:08:04 10° SSW visible
04 Dec 10.0 17:09:54 10° WSW 17:10:52 11° W 17:11:49 10° WNW visible
05 Dec 8.2 04:22:37 10° NNE 04:25:44 32° E 04:28:49 10° SSE visible
05 Dec 7.7 05:55:31 10° NNW 05:58:04 20° WNW 06:00:36 10° WSW visible
05 Dec 8.7 16:28:39 10° SSW 16:31:38 29° W 16:34:40 10° NW visible
06 Dec 9.8 03:45:05 10° ENE 03:46:31 12° E 03:47:58 10° ESE visible
06 Dec 6.4 05:16:01 10° N 05:19:22 53° WNW 05:22:39 10° SSW visible
07 Dec 7.3 04:37:06 10° NNE 04:40:25 48° E 04:43:41 10° S visible
07 Dec 8.1 06:10:37 10° NNW 06:12:33 15° WNW 06:14:28 10° W visible
07 Dec 9.4 16:43:44 10° SW 16:46:20 20° W 16:48:56 10° NW visible
08 Dec 9.3 03:58:52 10° NE 04:01:13 17° E 04:03:32 10° SE visible
08 Dec 6.9 05:30:42 10° N 05:33:52 35° WNW 05:36:57 10° SW visible
08 Dec 7.2 16:03:48 10° S 16:07:08 57° W 16:10:32 10° NNW visible
